Time,TemperatureF,DewpointF,PressureIn,WindDirection,WindDirectionDegrees,WindSpeedMPH,WindSpeedGustMPH,Humidity,HourlyPrecipIn,Conditions,Clouds,dailyrainin,SoftwareType,DateUTC
2013-02-01 00:01:00,9.3,1.8,30.32,West,270,10.0,20.8,71,0.00,,,0.00,WUHU21636XXSP,2013-02-01 06:01:00,
2013-02-01 00:06:00,9.1,1.6,30.33,WNW,292,10.7,19.0,71,0.00,,,0.00,WUHU21636XXSP,2013-02-01 06:06:00,
2013-02-01 00:11:00,9.1,1.2,30.33,WNW,292,5.5,27.0,70,0.00,,,0.00,WUHU21636XXSP,2013-02-01 06:11:00,
2013-02-01 00:16:00,9.1,1.8,30.33,West,270,3.1,27.0,72,0.00,,,0.00,WUHU21636XXSP,2013-02-01 06:16:00,
2013-02-01 00:21:00,9.0,1.8,30.34,WNW,292,11.6,20.1,72,0.00,,,0.00,WUHU21636XXSP,2013-02-01 06:21:00,
2013-02-01 00:26:00,9.0,1.9,30.34,WNW,292,4.4,20.1,73,0.00,,,0.00,WUHU21636XXSP,2013-02-01 06:26:00,
2013-02-01 00:31:00,9.0,1.9,30.34,WNW,292,4.4,13.1,73,0.00,,,0.00,WUHU21636XXSP,2013-02-01 06:31:00,
2013-02-01 00:36:00,9.1,1.8,30.34,West,270,7.8,19.0,72,0.00,,,0.00,WUHU21636XXSP,2013-02-01 06:36:00,
2013-02-01 00:41:00,9.0,1.0,30.34,WNW,292,9.8,19.0,70,0.00,,,0.00,WUHU21636XXSP,2013-02-01 06:41:00,
2013-02-01 00:46:00,9.0,0.7,30.34,NNW,337,7.1,18.3,69,0.00,,,0.00,WUHU21636XXSP,2013-02-01 06:46:00,
2013-02-01 00:51:00,8.8,0.3,30.34,NW,315,14.5,25.2,68,0.00,,,0.00,WUHU21636XXSP,2013-02-01 06:51:00,
2013-02-01 00:56:00,8.8,0.7,30.35,West,270,8.0,25.2,69,0.00,,,0.00,WUHU21636XXSP,2013-02-01 06:56:00,
2013-02-01 01:01:00,8.8,0.7,30.35,WNW,292,7.3,25.7,69,0.00,,,0.00,WUHU21636XXSP,2013-02-01 07:01:00,
2013-02-01 01:06:00,8.8,0.9,30.35,NW,315,7.3,25.7,70,0.00,,,0.00,WUHU21636XXSP,2013-02-01 07:06:00,
2013-02-01 01:11:00,8.8,0.7,30.35,NW,315,10.2,24.8,69,0.00,,,0.00,WUHU21636XXSP,2013-02-01 07:11:00,
2013-02-01 01:16:00,8.4,0.3,30.35,NW,315,12.5,25.9,69,0.00,,,0.00,WUHU21636XXSP,2013-02-01 07:16:00,
2013-02-01 01:21:00,8.4,0.7,30.35,WNW,292,7.1,25.9,70,0.00,,,0.00,WUHU21636XXSP,2013-02-01 07:21:00,
2013-02-01 01:26:00,8.4,1.2,30.35,NW,315,12.0,26.6,72,0.00,,,0.00,WUHU21636XXSP,2013-02-01 07:26:00,
2013-02-01 01:31:00,8.4,0.9,30.35,WNW,292,16.1,26.6,71,0.00,,,0.00,WUHU21636XXSP,2013-02-01 07:31:00,
2013-02-01 01:36:00,8.4,0.9,30.36,WNW,292,12.0,21.9,71,0.00,,,0.00,WUHU21636XXSP,2013-02-01 07:36:00,
2013-02-01 01:41:00,8.4,0.9,30.35,NW,315,11.1,22.1,71,0.00,,,0.00,WUHU21636XXSP,2013-02-01 07:41:00,
2013-02-01 01:46:00,8.4,0.9,30.36,NW,315,8.2,22.3,71,0.00,,,0.00,WUHU21636XXSP,2013-02-01 07:46:00,
2013-02-01 01:51:00,8.4,1.2,30.36,WNW,292,11.1,22.3,72,0.00,,,0.00,WUHU21636XXSP,2013-02-01 07:51:00,
2013-02-01 01:56:00,8.4,1.2,30.36,West,270,4.0,19.6,72,0.00,,,0.00,WUHU21636XXSP,2013-02-01 07:56:00,
2013-02-01 02:01:00,8.4,1.2,30.36,NW,315,4.4,13.6,72,0.00,,,0.00,WUHU21636XXSP,2013-02-01 08:01:00,
2013-02-01 02:06:00,8.4,0.9,30.36,NW,315,8.7,22.1,71,0.00,,,0.00,WUHU21636XXSP,2013-02-01 08:06:00,
2013-02-01 02:11:00,8.2,0.5,30.36,WNW,292,9.1,23.0,70,0.00,,,0.00,WUHU21636XXSP,2013-02-01 08:11:00,
2013-02-01 02:16:00,8.2,0.5,30.37,WNW,292,7.1,23.0,70,0.00,,,0.00,WUHU21636XXSP,2013-02-01 08:16:00,
2013-02-01 02:21:00,8.4,0.7,30.37,West,270,7.3,24.6,70,0.00,,,0.00,WUHU21636XXSP,2013-02-01 08:21:00,
2013-02-01 02:26:00,8.2,0.5,30.38,NW,315,11.6,24.6,70,0.00,,,0.00,WUHU21636XXSP,2013-02-01 08:26:00,
2013-02-01 02:31:00,8.2,0.7,30.38,WNW,292,9.6,24.1,71,0.00,,,0.00,WUHU21636XXSP,2013-02-01 08:31:00,
2013-02-01 02:36:00,8.2,0.7,30.38,WNW,292,7.8,18.3,71,0.00,,,0.00,WUHU21636XXSP,2013-02-01 08:36:00,
2013-02-01 02:41:00,8.2,1.0,30.37,NNW,337,16.5,24.1,72,0.00,,,0.00,WUHU21636XXSP,2013-02-01 08:41:00,
2013-02-01 02:46:00,7.9,0.7,30.37,NW,315,9.3,24.1,72,0.00,,,0.00,WUHU21636XXSP,2013-02-01 08:46:00,
2013-02-01 02:51:00,7.9,0.7,30.37,WNW,292,11.4,24.3,72,0.00,,,0.00,WUHU21636XXSP,2013-02-01 08:51:00,
2013-02-01 02:56:00,7.9,0.7,30.37,NW,315,9.1,24.3,72,0.00,,,0.00,WUHU21636XXSP,2013-02-01 08:56:00,
2013-02-01 03:01:00,7.9,0.7,30.37,NW,315,10.9,20.1,72,0.00,,,0.00,WUHU21636XXSP,2013-02-01 09:01:00,
2013-02-01 03:06:00,7.9,0.3,30.38,NNW,337,9.1,17.8,71,0.00,,,0.00,WUHU21636XXSP,2013-02-01 09:06:00,
2013-02-01 03:11:00,7.9,0.1,30.37,WNW,292,16.1,23.2,70,0.00,,,0.00,WUHU21636XXSP,2013-02-01 09:11:00,
2013-02-01 03:16:00,7.7,0.1,30.37,NW,315,10.2,23.2,71,0.00,,,0.00,WUHU21636XXSP,2013-02-01 09:16:00,
2013-02-01 03:21:00,7.7,0.5,30.37,NW,315,10.5,23.0,72,0.00,,,0.00,WUHU21636XXSP,2013-02-01 09:21:00,
2013-02-01 03:26:00,7.5,0.3,30.37,WNW,292,12.5,21.4,72,0.00,,,0.00,WUHU21636XXSP,2013-02-01 09:26:00,
2013-02-01 03:31:00,7.7,0.5,30.37,NW,315,11.8,21.4,72,0.00,,,0.00,WUHU21636XXSP,2013-02-01 09:31:00,
2013-02-01 03:36:00,7.5,0.3,30.37,WNW,292,6.7,20.5,72,0.00,,,0.00,WUHU21636XXSP,2013-02-01 09:36:00,
2013-02-01 03:41:00,7.5,0.3,30.37,NW,315,6.9,16.5,72,0.00,,,0.00,WUHU21636XXSP,2013-02-01 09:41:00,
2013-02-01 03:46:00,7.3,-0.2,30.37,WNW,292,13.6,16.7,71,0.00,,,0.00,WUHU21636XXSP,2013-02-01 09:46:00,
2013-02-01 03:51:00,7.3,-0.2,30.38,NW,315,10.0,16.7,71,0.00,,,0.00,WUHU21636XXSP,2013-02-01 09:51:00,
2013-02-01 03:56:00,7.3,-0.2,30.38,NW,315,7.1,16.5,71,0.00,,,0.00,WUHU21636XXSP,2013-02-01 09:56:00,
2013-02-01 04:01:00,7.3,-0.2,30.37,NW,315,5.5,15.4,71,0.00,,,0.00,WUHU21636XXSP,2013-02-01 10:01:00,
2013-02-01 04:06:00,7.3,-0.2,30.38,WNW,292,6.0,14.5,71,0.00,,,0.00,WUHU21636XXSP,2013-02-01 10:06:00,
2013-02-01 04:11:00,7.3,-0.2,30.37,WNW,292,7.6,17.0,71,0.00,,,0.00,WUHU21636XXSP,2013-02-01 10:11:00,
2013-02-01 04:16:00,7.3,0.1,30.38,WNW,292,8.5,17.0,72,0.00,,,0.00,WUHU21636XXSP,2013-02-01 10:16:00,
2013-02-01 04:21:00,7.3,0.1,30.38,WNW,292,6.0,15.2,72,0.00,,,0.00,WUHU21636XXSP,2013-02-01 10:21:00,
2013-02-01 04:26:00,7.3,0.3,30.38,NW,315,7.1,13.8,73,0.00,,,0.00,WUHU21636XXSP,2013-02-01 10:26:00,
2013-02-01 04:31:00,7.3,0.3,30.38,WNW,292,4.6,11.6,73,0.00,,,0.00,WUHU21636XXSP,2013-02-01 10:31:00,
2013-02-01 04:36:00,7.2,0.1,30.38,WNW,292,3.8,10.0,73,0.00,,,0.00,WUHU21636XXSP,2013-02-01 10:36:00,
2013-02-01 04:41:00,7.2,0.1,30.37,West,270,1.7,11.4,73,0.00,,,0.00,WUHU21636XXSP,2013-02-01 10:41:00,
2013-02-01 04:46:00,7.2,0.1,30.38,WNW,292,4.4,11.4,73,0.00,,,0.00,WUHU21636XXSP,2013-02-01 10:46:00,
2013-02-01 04:51:00,7.2,0.1,30.38,NW,315,5.8,7.1,73,0.00,,,0.00,WUHU21636XXSP,2013-02-01 10:51:00,
2013-02-01 04:56:00,7.0,0.0,30.38,NW,315,8.0,10.9,73,0.00,,,0.00,WUHU21636XXSP,2013-02-01 10:56:00,
2013-02-01 05:01:00,7.0,-0.2,30.38,NW,315,5.3,17.2,72,0.00,,,0.00,WUHU21636XXSP,2013-02-01 11:01:00,
2013-02-01 05:06:00,7.0,-0.6,30.38,WNW,292,8.9,17.2,71,0.00,,,0.00,WUHU21636XXSP,2013-02-01 11:06:00,
2013-02-01 05:11:00,6.8,-0.8,30.38,NW,315,10.5,15.6,71,0.00,,,0.00,WUHU21636XXSP,2013-02-01 11:11:00,
2013-02-01 05:16:00,6.8,-0.4,30.38,WNW,292,6.0,14.5,72,0.00,,,0.00,WUHU21636XXSP,2013-02-01 11:16:00,
2013-02-01 05:21:00,6.8,-0.4,30.38,West,270,4.0,14.5,72,0.00,,,0.00,WUHU21636XXSP,2013-02-01 11:21:00,
2013-02-01 05:26:00,6.6,-0.9,30.39,NW,315,6.7,13.1,71,0.00,,,0.00,WUHU21636XXSP,2013-02-01 11:26:00,
2013-02-01 05:31:00,6.6,-0.6,30.39,NW,315,5.8,13.1,72,0.00,,,0.00,WUHU21636XXSP,2013-02-01 11:31:00,
2013-02-01 05:36:00,6.6,-0.6,30.39,WNW,292,4.2,15.6,72,0.00,,,0.00,WUHU21636XXSP,2013-02-01 11:36:00,
2013-02-01 05:41:00,6.4,-0.8,30.39,West,270,0.6,15.6,72,0.00,,,0.00,WUHU21636XXSP,2013-02-01 11:41:00,
2013-02-01 05:46:00,6.4,-0.8,30.38,NW,315,9.3,12.3,72,0.00,,,0.00,WUHU21636XXSP,2013-02-01 11:46:00,
2013-02-01 05:51:00,6.4,-0.8,30.39,WNW,292,6.4,12.3,72,0.00,,,0.00,WUHU21636XXSP,2013-02-01 11:51:00,
2013-02-01 05:56:00,6.4,-0.6,30.40,WNW,292,6.2,11.1,73,0.00,,,0.00,WUHU21636XXSP,2013-02-01 11:56:00,
2013-02-01 06:01:00,6.4,-0.6,30.40,NW,315,2.6,10.9,73,0.00,,,0.00,WUHU21636XXSP,2013-02-01 12:01:00,
2013-02-01 06:06:00,6.4,-0.6,30.40,NW,315,5.5,10.0,73,0.00,,,0.00,WUHU21636XXSP,2013-02-01 12:06:00,
2013-02-01 06:11:00,6.4,-0.6,30.40,WNW,292,8.7,12.0,73,0.00,,,0.00,WUHU21636XXSP,2013-02-01 12:11:00,
2013-02-01 06:16:00,6.4,-0.6,30.41,West,270,0.0,12.0,73,0.00,,,0.00,WUHU21636XXSP,2013-02-01 12:16:00,
2013-02-01 06:21:00,6.4,-0.8,30.40,WNW,292,1.5,12.5,72,0.00,,,0.00,WUHU21636XXSP,2013-02-01 12:21:00,
2013-02-01 06:26:00,6.4,-0.8,30.40,WNW,292,0.6,15.8,72,0.00,,,0.00,WUHU21636XXSP,2013-02-01 12:26:00,
2013-02-01 06:31:00,6.4,-0.8,30.41,West,270,0.0,15.8,73,0.00,,,0.00,WUHU21636XXSP,2013-02-01 12:31:00,
2013-02-01 06:36:00,6.1,-0.6,30.41,West,270,1.5,1.5,74,0.00,,,0.00,WUHU21636XXSP,2013-02-01 12:36:00,
2013-02-01 06:41:00,6.3,-0.8,30.41,WNW,292,2.0,7.3,73,0.00,,,0.00,WUHU21636XXSP,2013-02-01 12:41:00,
2013-02-01 06:46:00,6.3,-0.4,30.40,NW,315,4.6,7.3,74,0.00,,,0.00,WUHU21636XXSP,2013-02-01 12:46:00,
2013-02-01 06:51:00,6.3,-0.4,30.41,West,270,0.0,7.8,74,0.00,,,0.00,WUHU21636XXSP,2013-02-01 12:51:00,
2013-02-01 06:56:00,6.1,-0.6,30.41,WNW,292,3.1,7.8,74,0.00,,,0.00,WUHU21636XXSP,2013-02-01 12:56:00,
2013-02-01 07:01:00,6.1,-0.6,30.42,WNW,292,1.5,3.1,74,0.00,,,0.00,WUHU21636XXSP,2013-02-01 13:01:00,
2013-02-01 07:06:00,6.4,-0.2,30.42,West,270,1.1,3.1,74,0.00,,,0.00,WUHU21636XXSP,2013-02-01 13:06:00,
2013-02-01 07:11:00,6.3,-0.9,30.42,West,270,0.2,14.9,73,0.00,,,0.00,WUHU21636XXSP,2013-02-01 13:11:00,
2013-02-01 07:16:00,6.4,-0.6,30.43,West,270,1.7,14.9,73,0.00,,,0.00,WUHU21636XXSP,2013-02-01 13:16:00,
2013-02-01 07:21:00,6.4,-0.6,30.43,NW,315,6.4,8.5,73,0.00,,,0.00,WUHU21636XXSP,2013-02-01 13:21:00,
2013-02-01 07:26:00,6.4,-0.6,30.42,WNW,292,2.4,8.5,74,0.00,,,0.00,WUHU21636XXSP,2013-02-01 13:26:00,
2013-02-01 07:31:00,6.6,-0.4,30.42,NW,315,2.6,8.7,73,0.00,,,0.00,WUHU21636XXSP,2013-02-01 13:31:00,
2013-02-01 07:36:00,7.3,0.1,30.42,NNW,337,5.5,8.7,72,0.00,,,0.00,WUHU21636XXSP,2013-02-01 13:36:00,
2013-02-01 07:41:00,7.5,0.3,30.42,West,270,2.2,6.9,72,0.00,,,0.00,WUHU21636XXSP,2013-02-01 13:41:00,
2013-02-01 07:46:00,8.4,1.2,30.42,West,270,0.0,6.7,72,0.00,,,0.00,WUHU21636XXSP,2013-02-01 13:46:00,
2013-02-01 07:51:00,8.4,0.7,30.41,NW,315,6.0,9.8,70,0.00,,,0.00,WUHU21636XXSP,2013-02-01 13:51:00,
2013-02-01 07:56:00,9.1,0.9,30.42,NW,315,0.0,12.9,69,0.00,,,0.00,WUHU21636XXSP,2013-02-01 13:56:00,
2013-02-01 08:01:00,9.9,1.2,30.42,West,270,0.8,12.9,68,0.00,,,0.00,WUHU21636XXSP,2013-02-01 14:01:00,
2013-02-01 08:06:00,10.6,1.6,30.42,West,270,0.0,4.4,67,0.00,,,0.00,WUHU21636XXSP,2013-02-01 14:06:00,
2013-02-01 08:11:00,11.3,1.9,30.42,WSW,247,1.1,3.1,66,0.00,,,0.00,WUHU21636XXSP,2013-02-01 14:11:00,
2013-02-01 08:16:00,12.0,2.7,30.42,WNW,292,0.0,3.1,65,0.00,,,0.00,WUHU21636XXSP,2013-02-01 14:16:00,
2013-02-01 08:21:00,12.4,2.7,30.43,West,270,0.0,2.9,62,0.00,,,0.00,WUHU21636XXSP,2013-02-01 14:21:00,
2013-02-01 08:26:00,12.0,1.6,30.43,West,270,2.2,3.5,63,0.00,,,0.00,WUHU21636XXSP,2013-02-01 14:26:00,
2013-02-01 08:31:00,12.6,2.1,30.43,West,270,1.3,3.5,62,0.00,,,0.00,WUHU21636XXSP,2013-02-01 14:31:00,
2013-02-01 08:36:00,11.1,0.9,30.43,WNW,292,3.3,8.0,63,0.00,,,0.00,WUHU21636XXSP,2013-02-01 14:36:00,
2013-02-01 08:41:00,11.1,0.9,30.43,West,270,1.7,10.0,63,0.00,,,0.00,WUHU21636XXSP,2013-02-01 14:41:00,
2013-02-01 08:46:00,12.4,1.6,30.43,WNW,292,2.9,10.0,62,0.00,,,0.00,WUHU21636XXSP,2013-02-01 14:46:00,
2013-02-01 08:51:00,13.6,2.8,30.44,West,270,1.3,6.4,62,0.00,,,0.00,WUHU21636XXSP,2013-02-01 14:51:00,
2013-02-01 08:56:00,13.5,1.2,30.43,West,270,0.4,6.9,58,0.00,,,0.00,WUHU21636XXSP,2013-02-01 14:56:00,
2013-02-01 09:01:00,12.6,0.3,30.43,WNW,292,10.0,12.5,58,0.00,,,0.00,WUHU21636XXSP,2013-02-01 15:01:00,
2013-02-01 09:06:00,12.7,1.4,30.44,NW,315,12.7,13.8,60,0.00,,,0.00,WUHU21636XXSP,2013-02-01 15:06:00,
2013-02-01 09:11:00,13.6,1.4,30.44,NW,315,4.9,13.8,58,0.00,,,0.00,WUHU21636XXSP,2013-02-01 15:11:00,
2013-02-01 09:16:00,13.5,2.1,30.44,NW,315,4.6,13.1,60,0.00,,,0.00,WUHU21636XXSP,2013-02-01 15:16:00,
2013-02-01 09:21:00,14.7,3.6,30.44,West,270,0.0,13.1,61,0.00,,,0.00,WUHU21636XXSP,2013-02-01 15:21:00,
2013-02-01 09:26:00,14.4,1.8,30.43,WNW,292,2.4,6.4,57,0.00,,,0.00,WUHU21636XXSP,2013-02-01 15:26:00,
2013-02-01 09:31:00,16.3,4.3,30.44,West,270,2.9,6.4,59,0.00,,,0.00,WUHU21636XXSP,2013-02-01 15:31:00,
2013-02-01 09:36:00,19.9,5.4,30.43,SW,225,5.1,7.8,53,0.00,,,0.00,WUHU21636XXSP,2013-02-01 15:36:00,
2013-02-01 09:41:00,17.1,1.9,30.44,West,270,3.8,10.0,51,0.00,,,0.00,WUHU21636XXSP,2013-02-01 15:41:00,
2013-02-01 09:46:00,17.6,3.2,30.44,NW,315,6.0,10.0,53,0.00,,,0.00,WUHU21636XXSP,2013-02-01 15:46:00,
2013-02-01 09:51:00,16.5,2.3,30.44,NW,315,10.2,10.9,53,0.00,,,0.00,WUHU21636XXSP,2013-02-01 15:51:00,
2013-02-01 09:56:00,15.4,2.3,30.45,West,270,5.1,11.8,56,0.00,,,0.00,WUHU21636XXSP,2013-02-01 15:56:00,
2013-02-01 10:01:00,17.4,2.7,30.44,NW,315,6.4,11.8,52,0.00,,,0.00,WUHU21636XXSP,2013-02-01 16:01:00,
2013-02-01 10:06:00,19.2,4.6,30.44,SSW,202,4.0,8.9,53,0.00,,,0.00,WUHU21636XXSP,2013-02-01 16:06:00,
2013-02-01 10:11:00,18.1,2.5,30.45,West,270,5.8,9.6,50,0.00,,,0.00,WUHU21636XXSP,2013-02-01 16:11:00,
2013-02-01 10:16:00,17.1,2.7,30.44,WSW,247,1.5,9.6,53,0.00,,,0.00,WUHU21636XXSP,2013-02-01 16:16:00,
2013-02-01 10:21:00,19.6,4.3,30.44,WNW,292,0.0,6.9,51,0.00,,,0.00,WUHU21636XXSP,2013-02-01 16:21:00,
2013-02-01 10:26:00,19.0,3.4,30.44,West,270,0.6,3.1,50,0.00,,,0.00,WUHU21636XXSP,2013-02-01 16:26:00,
2013-02-01 10:31:00,16.9,2.5,30.44,West,270,6.0,13.6,53,0.00,,,0.00,WUHU21636XXSP,2013-02-01 16:31:00,
2013-02-01 10:36:00,16.7,2.3,30.45,West,270,4.9,13.6,53,0.00,,,0.00,WUHU21636XXSP,2013-02-01 16:36:00,
2013-02-01 10:41:00,19.0,3.4,30.44,WNW,292,8.9,10.5,50,0.00,,,0.00,WUHU21636XXSP,2013-02-01 16:41:00,
2013-02-01 10:46:00,18.0,3.9,30.44,WSW,247,3.3,10.5,54,0.00,,,0.00,WUHU21636XXSP,2013-02-01 16:46:00,
2013-02-01 10:51:00,19.9,4.5,30.44,SW,225,2.4,10.0,51,0.00,,,0.00,WUHU21636XXSP,2013-02-01 16:51:00,
2013-02-01 10:56:00,20.1,4.3,30.44,WSW,247,5.1,5.8,50,0.00,,,0.00,WUHU21636XXSP,2013-02-01 16:56:00,
2013-02-01 11:01:00,21.0,5.2,30.44,WSW,247,0.8,9.1,50,0.00,,,0.00,WUHU21636XXSP,2013-02-01 17:01:00,
2013-02-01 11:06:00,22.3,5.9,30.44,SW,225,3.8,9.1,49,0.00,,,0.00,WUHU21636XXSP,2013-02-01 17:06:00,
2013-02-01 11:11:00,20.1,3.4,30.44,West,270,3.3,8.2,48,0.00,,,0.00,WUHU21636XXSP,2013-02-01 17:11:00,
2013-02-01 11:16:00,20.8,5.4,30.44,WSW,247,4.2,9.6,51,0.00,,,0.00,WUHU21636XXSP,2013-02-01 17:16:00,
2013-02-01 11:21:00,20.3,4.5,30.44,West,270,5.8,10.2,50,0.00,,,0.00,WUHU21636XXSP,2013-02-01 17:21:00,
2013-02-01 11:26:00,21.0,5.5,30.43,West,270,3.5,10.2,51,0.00,,,0.00,WUHU21636XXSP,2013-02-01 17:26:00,
2013-02-01 11:31:00,22.8,6.4,30.43,WNW,292,4.9,8.7,49,0.00,,,0.00,WUHU21636XXSP,2013-02-01 17:31:00,
2013-02-01 11:36:00,23.2,6.8,30.43,West,270,4.2,7.6,49,0.00,,,0.00,WUHU21636XXSP,2013-02-01 17:36:00,
2013-02-01 11:41:00,22.3,5.0,30.42,West,270,4.4,7.6,47,0.00,,,0.00,WUHU21636XXSP,2013-02-01 17:41:00,
2013-02-01 11:46:00,23.2,6.8,30.41,WSW,247,0.0,4.4,49,0.00,,,0.00,WUHU21636XXSP,2013-02-01 17:46:00,
2013-02-01 11:51:00,23.7,6.3,30.41,SW,225,0.0,8.5,47,0.00,,,0.00,WUHU21636XXSP,2013-02-01 17:51:00,
2013-02-01 11:56:00,23.4,5.9,30.41,WSW,247,0.0,8.5,47,0.00,,,0.00,WUHU21636XXSP,2013-02-01 17:56:00,
2013-02-01 12:01:00,23.2,5.7,30.41,West,270,0.0,3.1,47,0.00,,,0.00,WUHU21636XXSP,2013-02-01 18:01:00,
2013-02-01 12:06:00,22.6,5.7,30.41,West,270,0.8,7.8,48,0.00,,,0.00,WUHU21636XXSP,2013-02-01 18:06:00,
2013-02-01 12:11:00,23.2,6.3,30.40,West,270,0.0,7.8,48,0.00,,,0.00,WUHU21636XXSP,2013-02-01 18:11:00,
2013-02-01 12:16:00,23.7,6.8,30.40,West,270,1.7,1.7,48,0.00,,,0.00,WUHU21636XXSP,2013-02-01 18:16:00,
2013-02-01 12:21:00,24.6,7.2,30.40,SW,225,3.5,6.2,47,0.00,,,0.00,WUHU21636XXSP,2013-02-01 18:21:00,
2013-02-01 12:26:00,24.3,6.3,30.40,SW,225,3.3,12.0,46,0.00,,,0.00,WUHU21636XXSP,2013-02-01 18:26:00,
2013-02-01 12:31:00,25.0,7.3,30.40,West,270,1.7,12.0,47,0.00,,,0.00,WUHU21636XXSP,2013-02-01 18:31:00,
2013-02-01 12:36:00,24.6,7.2,30.39,West,270,5.8,10.0,47,0.00,,,0.00,WUHU21636XXSP,2013-02-01 18:36:00,
2013-02-01 12:41:00,24.4,5.9,30.39,West,270,0.0,10.0,45,0.00,,,0.00,WUHU21636XXSP,2013-02-01 18:41:00,
2013-02-01 12:46:00,25.3,6.8,30.39,WNW,292,4.0,6.4,45,0.00,,,0.00,WUHU21636XXSP,2013-02-01 18:46:00,
2013-02-01 12:51:00,25.2,7.2,30.38,WSW,247,0.0,6.9,46,0.00,,,0.00,WUHU21636XXSP,2013-02-01 18:51:00,
2013-02-01 12:56:00,25.9,6.8,30.38,WSW,247,0.0,6.9,44,0.00,,,0.00,WUHU21636XXSP,2013-02-01 18:56:00,
2013-02-01 13:01:00,24.8,5.7,30.38,NW,315,6.7,11.4,44,0.00,,,0.00,WUHU21636XXSP,2013-02-01 19:01:00,
2013-02-01 13:06:00,22.8,6.4,30.38,West,270,0.2,12.7,49,0.00,,,0.00,WUHU21636XXSP,2013-02-01 19:06:00,
2013-02-01 13:11:00,23.7,7.2,30.38,West,270,1.7,12.7,49,0.00,,,0.00,WUHU21636XXSP,2013-02-01 19:11:00,
2013-02-01 13:16:00,25.2,8.1,30.38,WSW,247,0.2,9.8,48,0.00,,,0.00,WUHU21636XXSP,2013-02-01 19:16:00,
2013-02-01 13:21:00,25.5,7.0,30.38,West,270,6.2,10.9,45,0.00,,,0.00,WUHU21636XXSP,2013-02-01 19:21:00,
2013-02-01 13:26:00,25.0,7.0,30.38,West,270,2.9,10.9,46,0.00,,,0.00,WUHU21636XXSP,2013-02-01 19:26:00,
2013-02-01 13:31:00,25.5,7.9,30.37,West,270,4.0,10.0,47,0.00,,,0.00,WUHU21636XXSP,2013-02-01 19:31:00,
2013-02-01 13:36:00,25.7,8.1,30.36,West,270,0.6,4.9,47,0.00,,,0.00,WUHU21636XXSP,2013-02-01 19:36:00,
2013-02-01 13:41:00,25.5,7.9,30.37,SW,225,2.9,8.2,47,0.00,,,0.00,WUHU21636XXSP,2013-02-01 19:41:00,
2013-02-01 13:47:00,26.2,8.1,30.37,SW,225,2.6,11.8,46,0.00,,,0.00,WUHU21636XXSP,2013-02-01 19:47:00,
2013-02-01 13:52:00,26.4,7.7,30.37,SW,225,2.2,11.8,45,0.00,,,0.00,WUHU21636XXSP,2013-02-01 19:52:00,
2013-02-01 13:57:00,26.4,8.2,30.36,SW,225,1.5,9.1,46,0.00,,,0.00,WUHU21636XXSP,2013-02-01 19:57:00,
2013-02-01 14:02:00,25.9,8.2,30.36,West,270,5.3,9.1,47,0.00,,,0.00,WUHU21636XXSP,2013-02-01 20:02:00,
2013-02-01 14:07:00,26.2,8.1,30.35,WSW,247,4.6,10.7,46,0.00,,,0.00,WUHU21636XXSP,2013-02-01 20:07:00,
2013-02-01 14:12:00,26.8,8.6,30.35,SW,225,4.4,10.7,46,0.00,,,0.00,WUHU21636XXSP,2013-02-01 20:12:00,
2013-02-01 14:17:00,26.4,8.8,30.36,WSW,247,2.6,4.6,47,0.00,,,0.00,WUHU21636XXSP,2013-02-01 20:17:00,
2013-02-01 14:22:00,24.3,7.7,30.36,West,270,3.8,9.6,49,0.00,,,0.00,WUHU21636XXSP,2013-02-01 20:22:00,
2013-02-01 14:27:00,23.5,8.8,30.36,SW,225,0.8,9.6,53,0.00,,,0.00,WUHU21636XXSP,2013-02-01 20:27:00,
2013-02-01 14:32:00,23.4,8.2,30.35,West,270,0.0,5.3,52,0.00,,,0.00,WUHU21636XXSP,2013-02-01 20:32:00,
2013-02-01 14:37:00,22.8,8.1,30.34,WSW,247,3.1,17.4,53,0.00,,,0.00,WUHU21636XXSP,2013-02-01 20:37:00,
2013-02-01 14:42:00,22.6,7.9,30.34,SW,225,4.2,17.4,53,0.00,,,0.00,WUHU21636XXSP,2013-02-01 20:42:00,
2013-02-01 14:47:00,22.6,7.9,30.34,SW,225,0.0,7.8,53,0.00,,,0.00,WUHU21636XXSP,2013-02-01 20:47:00,
2013-02-01 14:52:00,22.8,8.1,30.35,SW,225,3.5,9.1,53,0.00,,,0.00,WUHU21636XXSP,2013-02-01 20:52:00,
2013-02-01 14:57:00,22.5,7.7,30.35,West,270,3.8,9.1,53,0.00,,,0.00,WUHU21636XXSP,2013-02-01 20:57:00,
2013-02-01 15:02:00,22.6,8.2,30.34,West,270,0.0,8.5,54,0.00,,,0.00,WUHU21636XXSP,2013-02-01 21:02:00,
2013-02-01 15:07:00,23.5,9.1,30.34,WSW,247,0.0,3.8,54,0.00,,,0.00,WUHU21636XXSP,2013-02-01 21:07:00,
2013-02-01 15:12:00,23.9,8.8,30.33,WSW,247,0.0,2.6,52,0.00,,,0.00,WUHU21636XXSP,2013-02-01 21:12:00,
2013-02-01 15:17:00,23.5,7.9,30.33,SW,225,1.1,2.6,51,0.00,,,0.00,WUHU21636XXSP,2013-02-01 21:17:00,
2013-02-01 15:22:00,23.4,8.2,30.33,West,270,0.0,2.6,52,0.00,,,0.00,WUHU21636XXSP,2013-02-01 21:22:00,
2013-02-01 15:27:00,23.2,8.1,30.32,West,270,0.0,1.7,52,0.00,,,0.00,WUHU21636XXSP,2013-02-01 21:27:00,
2013-02-01 15:32:00,23.4,8.6,30.33,WSW,247,0.6,9.8,53,0.00,,,0.00,WUHU21636XXSP,2013-02-01 21:32:00,
2013-02-01 15:37:00,23.2,8.4,30.33,WSW,247,5.3,12.0,53,0.00,,,0.00,WUHU21636XXSP,2013-02-01 21:37:00,
2013-02-01 15:42:00,23.2,8.4,30.33,WNW,292,2.2,12.0,53,0.00,,,0.00,WUHU21636XXSP,2013-02-01 21:42:00,
2013-02-01 15:47:00,22.8,8.4,30.33,SW,225,3.1,12.0,54,0.00,,,0.00,WUHU21636XXSP,2013-02-01 21:47:00,
2013-02-01 15:52:00,22.8,8.4,30.33,West,270,0.0,8.7,54,0.00,,,0.00,WUHU21636XXSP,2013-02-01 21:52:00,
2013-02-01 15:57:00,22.8,8.4,30.33,West,270,0.8,4.4,54,0.00,,,0.00,WUHU21636XXSP,2013-02-01 21:57:00,
2013-02-01 16:02:00,23.2,9.1,30.33,WSW,247,0.0,4.4,55,0.00,,,0.00,WUHU21636XXSP,2013-02-01 22:02:00,
2013-02-01 16:07:00,23.2,8.8,30.33,WSW,247,4.6,4.6,54,0.00,,,0.00,WUHU21636XXSP,2013-02-01 22:07:00,
2013-02-01 16:12:00,22.8,8.4,30.32,WSW,247,2.0,11.1,54,0.00,,,0.00,WUHU21636XXSP,2013-02-01 22:12:00,
2013-02-01 16:17:00,22.8,8.4,30.32,West,270,0.0,11.1,54,0.00,,,0.00,WUHU21636XXSP,2013-02-01 22:17:00,
2013-02-01 16:22:00,23.2,8.8,30.32,WSW,247,4.0,7.8,54,0.00,,,0.00,WUHU21636XXSP,2013-02-01 22:22:00,
2013-02-01 16:27:00,22.8,8.1,30.32,SW,225,0.6,10.9,53,0.00,,,0.00,WUHU21636XXSP,2013-02-01 22:27:00,
2013-02-01 16:32:00,22.8,8.1,30.32,West,270,2.2,10.9,53,0.00,,,0.00,WUHU21636XXSP,2013-02-01 22:32:00,
2013-02-01 16:37:00,22.8,8.1,30.32,WSW,247,0.0,5.5,53,0.00,,,0.00,WUHU21636XXSP,2013-02-01 22:37:00,
2013-02-01 16:42:00,22.6,8.2,30.32,SSW,202,4.9,6.9,54,0.00,,,0.00,WUHU21636XXSP,2013-02-01 22:42:00,
2013-02-01 16:47:00,22.6,7.9,30.32,SW,225,0.0,11.8,54,0.00,,,0.00,WUHU21636XXSP,2013-02-01 22:47:00,
2013-02-01 16:52:00,22.6,8.2,30.32,SW,225,0.0,11.8,54,0.00,,,0.00,WUHU21636XXSP,2013-02-01 22:52:00,
2013-02-01 16:57:00,22.6,8.2,30.32,SW,225,1.7,4.0,54,0.00,,,0.00,WUHU21636XXSP,2013-02-01 22:57:00,
2013-02-01 17:02:00,22.6,8.2,30.32,South,180,0.0,3.3,55,0.00,,,0.00,WUHU21636XXSP,2013-02-01 23:02:00,
2013-02-01 17:07:00,22.6,8.2,30.32,West,270,5.1,9.1,54,0.00,,,0.00,WUHU21636XXSP,2013-02-01 23:07:00,
2013-02-01 17:12:00,22.6,8.2,30.32,WSW,247,0.0,9.6,54,0.00,,,0.00,WUHU21636XXSP,2013-02-01 23:12:00,
2013-02-01 17:17:00,22.6,8.2,30.32,SW,225,1.7,9.6,54,0.00,,,0.00,WUHU21636XXSP,2013-02-01 23:17:00,
2013-02-01 17:22:00,22.6,8.2,30.32,West,270,3.1,6.9,54,0.00,,,0.00,WUHU21636XXSP,2013-02-01 23:22:00,
2013-02-01 17:27:00,22.6,8.2,30.32,WSW,247,0.0,6.9,55,0.00,,,0.00,WUHU21636XXSP,2013-02-01 23:27:00,
2013-02-01 17:32:00,22.6,8.2,30.32,West,270,0.0,3.1,55,0.00,,,0.00,WUHU21636XXSP,2013-02-01 23:32:00,
2013-02-01 17:37:00,22.8,9.0,30.31,WSW,247,2.4,2.4,56,0.00,,,0.00,WUHU21636XXSP,2013-02-01 23:37:00,
2013-02-01 17:42:00,22.8,9.0,30.31,SW,225,2.9,3.8,55,0.00,,,0.00,WUHU21636XXSP,2013-02-01 23:42:00,
2013-02-01 17:47:00,22.8,9.0,30.31,WSW,247,0.0,3.8,56,0.00,,,0.00,WUHU21636XXSP,2013-02-01 23:47:00,
2013-02-01 17:52:00,22.8,9.3,30.30,SW,225,1.7,7.8,56,0.00,,,0.00,WUHU21636XXSP,2013-02-01 23:52:00,
2013-02-01 17:57:00,22.8,9.3,30.30,West,270,2.0,7.8,56,0.00,,,0.00,WUHU21636XXSP,2013-02-01 23:57:00,
2013-02-01 18:02:00,22.8,9.3,30.30,WSW,247,1.3,2.0,57,0.00,,,0.00,WUHU21636XXSP,2013-02-02 00:02:00,
2013-02-01 18:07:00,22.8,9.3,30.30,SW,225,2.2,2.9,57,0.00,,,0.00,WUHU21636XXSP,2013-02-02 00:07:00,
2013-02-01 18:12:00,22.8,9.7,30.30,SW,225,1.3,4.0,58,0.00,,,0.00,WUHU21636XXSP,2013-02-02 00:12:00,
2013-02-01 18:17:00,22.8,9.7,30.29,SW,225,0.0,4.0,57,0.00,,,0.00,WUHU21636XXSP,2013-02-02 00:17:00,
2013-02-01 18:22:00,22.8,9.7,30.30,SW,225,0.0,1.3,56,0.00,,,0.00,WUHU21636XXSP,2013-02-02 00:22:00,
2013-02-01 18:27:00,22.8,10.0,30.30,SW,225,5.3,8.0,58,0.00,,,0.00,WUHU21636XXSP,2013-02-02 00:27:00,
2013-02-01 18:32:00,22.8,10.0,30.30,SW,225,0.0,8.0,58,0.00,,,0.00,WUHU21636XXSP,2013-02-02 00:32:00,
2013-02-01 18:37:00,22.8,10.0,30.30,SW,225,0.0,8.7,58,0.00,,,0.00,WUHU21636XXSP,2013-02-02 00:37:00,
2013-02-01 18:42:00,22.8,10.0,30.29,SW,225,3.5,8.7,58,0.00,,,0.00,WUHU21636XXSP,2013-02-02 00:42:00,
2013-02-01 18:47:00,22.8,10.0,30.30,South,180,0.0,3.5,58,0.00,,,0.00,WUHU21636XXSP,2013-02-02 00:47:00,
2013-02-01 18:52:00,22.6,10.2,30.30,SW,225,0.0,3.5,59,0.00,,,0.00,WUHU21636XXSP,2013-02-02 00:52:00,
2013-02-01 18:57:00,22.6,10.2,30.30,SW,225,0.0,3.1,59,0.00,,,0.00,WUHU21636XXSP,2013-02-02 00:57:00,
2013-02-01 19:02:00,22.6,10.2,30.29,SSW,202,0.0,0.0,60,0.00,,,0.00,WUHU21636XXSP,2013-02-02 01:02:00,
2013-02-01 19:07:00,22.6,10.2,30.29,SW,225,0.0,0.0,61,0.00,,,0.00,WUHU21636XXSP,2013-02-02 01:07:00,
2013-02-01 19:12:00,22.6,10.2,30.29,South,180,0.0,0.0,61,0.00,,,0.00,WUHU21636XXSP,2013-02-02 01:12:00,
2013-02-01 19:17:00,22.6,10.2,30.29,South,180,0.0,0.0,61,0.00,,,0.00,WUHU21636XXSP,2013-02-02 01:17:00,
2013-02-01 19:22:00,22.6,10.2,30.29,South,180,0.0,0.0,61,0.00,,,0.00,WUHU21636XXSP,2013-02-02 01:22:00,
2013-02-01 19:27:00,22.6,10.2,30.28,South,180,0.0,0.0,61,0.00,,,0.00,WUHU21636XXSP,2013-02-02 01:27:00,
2013-02-01 19:32:00,22.6,10.2,30.28,SSW,202,0.0,0.0,61,0.00,,,0.00,WUHU21636XXSP,2013-02-02 01:32:00,
2013-02-01 19:37:00,22.6,10.2,30.28,South,180,0.0,0.0,61,0.00,,,0.00,WUHU21636XXSP,2013-02-02 01:37:00,
2013-02-01 19:42:00,22.6,10.2,30.28,South,180,0.0,1.5,61,0.00,,,0.00,WUHU21636XXSP,2013-02-02 01:42:00,
2013-02-01 19:47:00,22.8,11.3,30.27,SSE,157,0.0,1.5,61,0.00,,,0.00,WUHU21636XXSP,2013-02-02 01:47:00,
2013-02-01 19:52:00,22.8,11.3,30.27,SSE,157,0.0,0.0,61,0.00,,,0.00,WUHU21636XXSP,2013-02-02 01:52:00,
2013-02-01 19:57:00,22.8,11.3,30.27,South,180,0.0,0.0,61,0.00,,,0.00,WUHU21636XXSP,2013-02-02 01:57:00,
2013-02-01 20:02:00,22.8,11.3,30.27,South,180,0.0,0.0,61,0.00,,,0.00,WUHU21636XXSP,2013-02-02 02:02:00,
2013-02-01 20:07:00,22.8,11.3,30.26,South,180,0.0,0.0,61,0.00,,,0.00,WUHU21636XXSP,2013-02-02 02:07:00,
2013-02-01 20:12:00,23.2,11.5,30.26,South,180,0.0,0.0,61,0.00,,,0.00,WUHU21636XXSP,2013-02-02 02:12:00,
2013-02-01 20:17:00,23.2,11.5,30.25,South,180,0.0,0.0,60,0.00,,,0.00,WUHU21636XXSP,2013-02-02 02:17:00,
2013-02-01 20:22:00,23.4,11.5,30.25,South,180,0.0,0.0,60,0.00,,,0.00,WUHU21636XXSP,2013-02-02 02:22:00,
2013-02-01 20:27:00,23.4,11.5,30.25,South,180,0.0,3.8,61,0.00,,,0.00,WUHU21636XXSP,2013-02-02 02:27:00,
2013-02-01 20:32:00,23.5,11.8,30.25,South,180,0.0,3.8,60,0.00,,,0.00,WUHU21636XXSP,2013-02-02 02:32:00,
2013-02-01 20:37:00,23.5,11.8,30.24,South,180,0.0,6.2,60,0.00,,,0.00,WUHU21636XXSP,2013-02-02 02:37:00,
2013-02-01 20:42:00,23.5,11.8,30.24,SSE,157,0.0,6.2,61,0.00,,,0.00,WUHU21636XXSP,2013-02-02 02:42:00,
2013-02-01 20:47:00,23.7,12.0,30.24,SSE,157,3.3,3.3,60,0.00,,,0.00,WUHU21636XXSP,2013-02-02 02:47:00,
2013-02-01 20:52:00,23.9,12.0,30.24,South,180,2.4,7.3,60,0.00,,,0.00,WUHU21636XXSP,2013-02-02 02:52:00,
2013-02-01 20:57:00,23.9,12.0,30.24,SSE,157,0.0,7.3,60,0.00,,,0.00,WUHU21636XXSP,2013-02-02 02:57:00,
2013-02-01 21:02:00,24.1,11.7,30.23,South,180,0.0,10.7,59,0.00,,,0.00,WUHU21636XXSP,2013-02-02 03:02:00,
2013-02-01 21:07:00,24.1,11.7,30.23,South,180,2.2,10.7,59,0.00,,,0.00,WUHU21636XXSP,2013-02-02 03:07:00,
2013-02-01 21:12:00,24.3,11.8,30.23,SW,225,3.1,13.4,59,0.00,,,0.00,WUHU21636XXSP,2013-02-02 03:12:00,
2013-02-01 21:17:00,24.4,12.0,30.23,SSW,202,1.7,13.4,59,0.00,,,0.00,WUHU21636XXSP,2013-02-02 03:17:00,
2013-02-01 21:22:00,24.4,12.0,30.23,South,180,0.0,7.8,59,0.00,,,0.00,WUHU21636XXSP,2013-02-02 03:22:00,
2013-02-01 21:27:00,24.4,12.0,30.23,SW,225,0.0,7.8,59,0.00,,,0.00,WUHU21636XXSP,2013-02-02 03:27:00,
2013-02-01 21:32:00,24.4,12.7,30.22,South,180,5.1,10.0,61,0.00,,,0.00,WUHU21636XXSP,2013-02-02 03:32:00,
2013-02-01 21:37:00,24.4,13.5,30.22,South,180,1.1,12.5,63,0.00,,,0.00,WUHU21636XXSP,2013-02-02 03:37:00,
2013-02-01 21:42:00,24.4,13.5,30.22,South,180,2.9,12.5,65,0.00,,,0.00,WUHU21636XXSP,2013-02-02 03:42:00,
2013-02-01 21:47:00,24.6,15.1,30.22,SW,225,5.1,5.1,67,0.00,,,0.00,WUHU21636XXSP,2013-02-02 03:47:00,
2013-02-01 21:52:00,24.4,15.6,30.22,SW,225,7.3,13.1,69,0.00,,,0.00,WUHU21636XXSP,2013-02-02 03:52:00,
2013-02-01 21:57:00,24.4,16.0,30.22,South,180,8.2,13.1,70,0.00,,,0.00,WUHU21636XXSP,2013-02-02 03:57:00,
2013-02-01 22:02:00,24.3,17.4,30.22,SW,225,4.9,12.5,75,0.00,,,0.00,WUHU21636XXSP,2013-02-02 04:02:00,
2013-02-01 22:07:00,24.1,17.8,30.22,SW,225,3.3,12.5,77,0.00,,,0.00,WUHU21636XXSP,2013-02-02 04:07:00,
2013-02-01 22:12:00,23.7,18.1,30.22,SSW,202,4.9,12.5,79,0.00,,,0.00,WUHU21636XXSP,2013-02-02 04:12:00,
2013-02-01 22:17:00,23.7,18.5,30.22,SSW,202,4.0,13.6,80,0.00,,,0.00,WUHU21636XXSP,2013-02-02 04:17:00,
2013-02-01 22:22:00,23.5,18.9,30.22,SSE,157,2.6,13.6,82,0.00,,,0.00,WUHU21636XXSP,2013-02-02 04:22:00,
2013-02-01 22:27:00,23.5,19.0,30.21,South,180,3.3,11.8,83,0.00,,,0.00,WUHU21636XXSP,2013-02-02 04:27:00,
2013-02-01 22:32:00,23.4,18.9,30.21,SSW,202,2.4,8.2,83,0.00,,,0.00,WUHU21636XXSP,2013-02-02 04:32:00,
2013-02-01 22:37:00,23.2,19.0,30.20,South,180,1.5,13.1,84,0.00,,,0.00,WUHU21636XXSP,2013-02-02 04:37:00,
2013-02-01 22:42:00,23.2,19.2,30.20,SW,225,2.6,13.1,85,0.00,,,0.00,WUHU21636XXSP,2013-02-02 04:42:00,
2013-02-01 22:47:00,23.2,19.2,30.20,SSW,202,3.5,9.1,85,0.00,,,0.00,WUHU21636XXSP,2013-02-02 04:47:00,
2013-02-01 22:52:00,23.2,19.2,30.20,SSW,202,0.0,9.1,85,0.00,,,0.00,WUHU21636XXSP,2013-02-02 04:52:00,
2013-02-01 22:57:00,23.2,19.8,30.20,SSE,157,3.1,8.0,87,0.00,,,0.00,WUHU21636XXSP,2013-02-02 04:57:00,
2013-02-01 23:00:00,22.8,19.4,30.20,South,180,4.2,8.2,87,0.00,,,0.00,WUHU21636XXSP,2013-02-02 05:00:00,
2013-02-01 23:05:00,23.2,19.8,30.19,WSW,247,0.0,8.9,87,0.00,,,0.00,WUHU21636XXSP,2013-02-02 05:05:00,
2013-02-01 23:10:00,23.2,19.8,30.19,SSW,202,3.3,9.6,87,0.00,,,0.00,WUHU21636XXSP,2013-02-02 05:10:00,
2013-02-01 23:15:00,23.2,19.8,30.18,South,180,3.3,10.5,87,0.00,,,0.00,WUHU21636XXSP,2013-02-02 05:15:00,
2013-02-01 23:20:00,23.2,20.1,30.18,South,180,2.6,10.5,88,0.00,,,0.00,WUHU21636XXSP,2013-02-02 05:20:00,
2013-02-01 23:25:00,23.2,20.1,30.18,South,180,7.8,12.7,88,0.00,,,0.00,WUHU21636XXSP,2013-02-02 05:25:00,
2013-02-01 23:30:00,23.2,20.1,30.17,South,180,3.5,12.7,88,0.00,,,0.00,WUHU21636XXSP,2013-02-02 05:30:00,
2013-02-01 23:35:00,23.2,20.1,30.18,South,180,2.9,8.2,88,0.00,,,0.00,WUHU21636XXSP,2013-02-02 05:35:00,
2013-02-01 23:40:00,23.4,20.3,30.17,SSE,157,3.5,8.2,88,0.00,,,0.00,WUHU21636XXSP,2013-02-02 05:40:00,
2013-02-01 23:45:00,23.4,20.3,30.17,SSE,157,3.1,3.5,88,0.00,,,0.00,WUHU21636XXSP,2013-02-02 05:45:00,
2013-02-01 23:50:00,23.5,20.5,30.18,SW,225,6.0,16.7,88,0.00,,,0.00,WUHU21636XXSP,2013-02-02 05:50:00,
2013-02-01 23:55:00,23.5,20.5,30.17,SSW,202,1.5,16.7,88,0.00,,,0.00,WUHU21636XXSP,2013-02-02 05:55:00,